User: anonymous   Login
Location: Unspecified
(0.0000°N, 0.0000°E)
Time: 18:37:49
(UTC+00:00)
Language:

USA-170 - Orbit

View from above orbital plane
View from above orbital plane
View from above satellite
View from above satellite

Ground track
Ground track

The orbit data is extracted from the following two-line orbital elements,

1 27875U 03040A   19083.80471685 -.00000291  00000-0  00000+0 0  9998
2 27875   4.9983  66.7446 0002556 316.1579  46.3833  1.00273275  5141
Epoch (UTC): 24 March 2019 19:18:47
Eccentricity: 0.0002556
inclination: 4.9983°
perigee height: 35775 km
apogee height: 35796 km
right ascension of ascending node: 66.7446°
argument of perigee: 316.1579°
revolutions per day: 1.00273275
mean anomaly at epoch: 46.3833°
orbit number at epoch: 514

The dashed part of the orbit path shows where the satellite is in the earth's shadow,  

DLR